Wind_Speed
90 89 88 86 84 82 82 82 81 80 80 81 81 81 79 79 80 82 83 81 78 75 73 71 68 67 69 68 67 64 61 60 61 60 59 57 55 53 52 51 50 49 49 47 44 43 45 45 45 45 45 44 44 44 43 41 42 43 44 44 42 39 39 41 41 40 40 40 37 36 36 38 39 39 38 38 40 40 40 40 41 43 43 44 43 43
92 88 85 85 85 84 84 85 85 83 82 83 82 82 81 79 80 82 83 82 79 76 74 74 70 68 70 70 69 66 62 61 62 62 62 61 58 56 55 54 53 52 51 48 46 46 47 48 47 46 46 47 47 46 46 44 43 43 44 43 43 42 42 44 43 42 42 42 41 40 39 41 42 41 40 41 42 42 42 43 45 45 46 46 46 46
92 86 83 85 87 86 87 87 87 86 84 84 83 83 82 80 81 82 83 83 81 77 75 76 73 70 71 70 70 69 65 64 64 63 63 62 61 59 57 57 56 55 53 51 49 49 50 50 49 48 48 49 49 48 47 46 43 42 43 44 45 44 45 46 45 45 43 42 43 44 44 43 43 43 43 44 44 44 45 47 48 48 48 48 48 48
90 85 85 88 89 88 88 88 88 86 85 84 82 82 81 81 81 82 82 82 82 79 76 76 74 71 71 71 70 70 68 67 67 66 65 64 62 61 61 60 59 57 56 54 53 53 52 52 51 51 51 51 51 51 50 49 47 45 45 46 46 46 47 48 47 47 45 44 44 45 46 45 45 44 44 47 47 48 50 51 50 50 50 50 51 51
92 89 90 92 91 90 89 89 88 87 85 84 82 82 81 81 83 83 83 82 82 80 77 76 75 71 71 72 72 73 71 69 68 67 66 65 64 65 64 63 62 61 60 58 56 56 55 55 54 54 54 54 54 54 54 54 53 52 52 51 51 51 51 51 50 49 47 46 45 46 47 48 48 47 46 48 49 50 52 53 52 53 53 53 53 54
96 94 94 95 94 93 91 89 88 87 86 84 83 82 82 82 84 84 83 83 82 81 78 78 76 72 72 73 72 74 73 69 70 68 66 66 67 67 66 65 65 64 63 61 59 58 58 58 57 57 57 57 57 57 57 56 56 56 56 56 55 56 56 55 53 50 49 48 48 46 47 49 51 50 48 48 50 51 52 53 54 55 55 55 56 56
99 97 96 96 95 95 94 92 90 89 88 85 83 84 84 84 85 85 85 84 83 81 78 80 78 72 70 72 72 74 73 70 70 69 67 69 69 69 68 68 67 66 65 65 63 61 61 61 60 59 60 60 60 60 58 56 56 57 58 57 57 58 58 58 56 53 52 51 50 48 48 50 53 53 51 50 50 50 52 53 55 56 56 56 56 57
100 98 97 97 96 95 94 91 90 90 90 87 86 87 87 87 88 87 87 86 84 82 80 80 80 74 68 70 72 73 72 71 70 70 70 71 72 71 70 70 69 69 68 68 66 65 64 63 63 62 62 62 62 60 58 57 58 59 59 58 59 59 60 59 58 57 56 56 55 53 52 52 54 57 56 52 50 51 52 54 56 57 57 57 57 57
101 99 98 98 97 96 93 91 90 91 91 89 89 90 89 89 89 88 88 87 86 84 80 77 80 77 68 67 73 72 69 70 72 73 74 74 74 73 72 72 71 71 71 70 69 68 67 66 65 64 64 63 63 61 59 59 60 60 60 60 60 60 61 61 60 59 60 61 60 59 56 55 56 57 56 53 53 54 55 57 59 60 60 59 59 58
103 101 100 100 99 96 94 93 94 94 94 92 92 92 90 89 88 87 87 86 87 85 79 76 79 80 71 65 70 72 68 71 74 75 77 77 77 75 74 74 74 73 73 72 71 71 70 68 67 66 64 64 63 62 61 61 62 62 63 63 62 62 62 62 61 61 62 63 63 61 59 58 58 57 56 55 56 58 59 60 61 62 62 61 61 61
107 105 104 104 101 98 96 97 98 98 96 95 94 93 91 89 87 87 87 87 88 85 79 77 79 83 76 65 66 71 70 72 75 76 78 79 79 78 77 77 77 75 75 75 74 73 72 71 69 67 65 66 65 64 63 63 64 64 65 65 65 64 64 63 63 62 63 64 63 62 61 60 60 60 59 59 60 60 61 62 63 64 63 63 62 62
109 107 107 105 102 100 98 99 100 99 97 95 94 93 92 91 89 87 87 87 87 83 79 80 82 86 81 66 63 71 74 74 75 76 79 80 80 81 80 80 80 79 77 77 76 75 75 73 71 69 68 68 67 66 66 66 65 65 66 67 66 66 65 65 65 64 64 64 64 64 64 63 63 63 63 63 63 63 65 66 67 67 66 65 64 64
109 107 106 105 103 102 101 102 102 100 98 96 95 94 94 93 90 88 87 87 87 85 83 85 87 89 83 67 62 69 75 76 76 77 79 80 81 82 83 82 82 81 80 79 78 77 76 75 73 71 70 70 69 69 69 69 67 67 67 68 68 68 68 68 67 67 67 67 67 67 66 66 66 65 65 65 66 67 69 70 70 69 69 69 68 67
108 107 106 105 103 102 101 102 101 99 96 95 93 94 94 93 91 89 90 91 91 89 89 90 91 89 81 69 63 66 73 78 79 80 80 79 81 83 85 85 84 83 83 82 81 80 78 77 76 74 73 73 72 72 72 71 70 69 68 69 70 70 70 70 70 70 70 70 70 69 69 69 68 67 67 67 68 70 72 72 71 71 71 71 71 70
108 107 105 103 100 99 99 99 98 97 96 96 95 96 96 95 95 95 95 94 93 92 91 91 90 85 78 71 66 67 73 79 81 81 82 81 81 83 86 87 87 86 85 84 83 81 80 79 78 77 76 75 75 75 74 73 72 71 70 70 71 71 72 72 72 72 72 72 72 72 71 71 70 70 70 70 70 71 72 73 73 72 72 72 72 73
108 106 102 100 98 98 99 99 99 99 99 98 97 97 97 96 97 98 96 94 94 93 93 91 89 83 78 74 71 70 74 79 80 80 82 83 83 83 84 87 89 89 87 86 85 83 82 81 80 79 78 77 77 77 77 76 75 73 73 72 72 72 73 73 73 74 74 74 74 73 72 72 72 72 72 72 73 73 73 74 74 74 74 74 74 75
108 106 103 102 101 100 101 101 101 100 100 100 99 98 97 97 98 99 98 97 97 96 95 93 89 84 79 76 74 72 73 77 81 80 82 84 84 83 84 86 89 90 89 87 86 85 84 82 81 81 80 80 80 80 80 79 77 76 75 74 74 74 74 74 75 76 76 76 75 75 74 74 74 74 75 75 75 75 75 76 76 77 77 77 77 77
107 106 105 104 103 104 104 103 103 103 103 102 101 99 99 100 101 102 101 100 99 97 95 92 89 86 82 78 76 76 75 77 82 84 83 84 86 85 85 85 87 89 91 89 88 87 86 84 83 83 82 82 82 82 82 81 80 78 77 77 76 76 76 76 77 77 78 78 78 79 79 78 78 78 78 77 77 77 77 78 79 80 80 81 81 80
110 109 107 106 106 106 106 105 105 105 104 103 101 101 102 104 103 104 104 101 99 99 96 93 91 89 85 80 78 79 80 80 83 86 85 83 85 86 86 86 86 87 89 90 89 89 88 87 86 85 85 84 84 84 83 83 82 81 80 80 79 79 79 79 79 80 80 81 82 83 83 82 82 81 81 80 80 80 80 80 81 82 83 83 83 82
113 112 111 110 109 109 108 107 106 104 103 102 102 103 104 106 105 105 105 104 102 102 99 97 95 91 86 82 81 82 83 82 83 86 87 85 84 85 87 88 88 87 87 88 89 89 89 89 89 88 88 87 86 86 85 85 85 84 83 83 82 82 82 82 82 83 83 84 84 85 85 85 85 84 83 83 83 82 82 82 83 84 84 84 84 84
115 114 113 112 112 111 109 107 105 103 103 102 101 102 103 104 105 105 106 107 105 105 102 99 96 89 84 83 84 84 85 85 83 84 88 88 86 85 86 88 89 89 87 87 87 89 90 90 91 91 91 90 90 89 88 87 87 86 86 85 85 84 84 85 85 85 85 85 85 86 87 87 87 87 86 85 85 84 84 84 85 86 87 87 86 86
115 114 114 113 112 110 107 105 104 104 103 103 103 104 105 106 108 109 109 108 106 104 102 100 96 88 84 85 86 86 87 88 87 86 87 90 90 87 86 87 89 90 90 89 87 87 89 91 92 92 93 93 93 92 91 90 89 88 88 87 87 87 87 88 88 87 87 87 87 87 88 89 89 88 88 87 86 86 86 87 87 88 89 89 88 88
116 115 115 114 113 111 109 107 106 105 105 107 107 107 107 108 108 108 107 105 105 104 102 102 99 90 86 88 90 90 90 90 90 90 90 92 93 91 89 88 89 91 92 92 90 89 89 90 92 93 94 95 95 95 94 93 92 92 91 90 90 90 90 90 90 90 90 89 89 90 90 91 91 91 90 89 88 88 88 88 89 90 91 91 91 92
119 118 117 116 114 113 111 110 110 109 109 109 107 107 107 106 105 106 105 105 106 105 104 104 102 93 88 91 94 94 94 93 94 94 93 94 94 94 94 92 91 91 92 93 94 92 91 90 91 93 94 95 96 96 96 96 96 95 95 94 93 93 93 92 92 92 92 92 92 93 93 93 93 93 92 91 91 91 91 91 91 91 92 93 94 95
119 120 119 117 115 114 113 112 111 110 108 106 104 105 105 105 105 106 106 106 107 106 106 107 104 96 91 92 95 96 96 96 96 96 96 96 96 95 96 95 94 92 92 93 94 95 94 92 91 92 93 95 96 97 97 97 98 98 98 97 97 96 96 95 95 95 95 95 95 95 96 95 95 95 95 95 95 94 94 93 93 93 94 95 97 98
117 120 120 118 116 113 111 110 109 107 105 103 103 103 103 104 106 107 108 110 110 109 110 109 104 96 93 93 93 95 98 99 99 98 98 98 97 97 96 96 96 95 94 93 94 95 96 95 94 93 93 94 96 98 99 99 99 100 100 100 99 99 98 98 98 97 97 97 97 97 98 98 98 98 98 97 97 96 96 95 95 96 97 99 100 101
117 120 121 118 116 113 111 111 110 108 107 106 107 108 110 111 113 114 115 114 112 110 110 106 101 96 95 95 95 96 99 102 101 100 100 99 99 98 98 97 97 97 97 96 96 96 97 97 97 96 95 94 95 97 99 100 101 101 102 102 101 101 100 100 99 99 99 99 99 100 100 100 100 99 98 98 97 97 98 98 98 99 100 102 103 104
119 120 119 117 116 115 115 115 114 113 113 115 116 118 118 118 117 116 114 111 109 108 106 103 102 100 98 98 98 97 99 102 103 103 102 101 101 101 100 100 100 100 100 100 100 100 99 99 99 99 98 97 96 97 99 101 102 102 103 103 103 102 102 101 101 101 101 101 101 101 102 101 101 100 100 99 100 100 100 101 102 102 103 104 105 106
120 120 117 116 116 117 117 117 117 117 118 119 120 119 117 116 114 111 108 107 108 107 105 103 104 103 101 101 100 99 100 101 104 106 106 106 106 104 103 103 102 102 102 103 103 103 103 101 100 100 99 99 98 97 98 100 102 103 104 104 104 104 104 104 104 103 103 103 103 103 103 103 102 102 102 102 102 102 103 104 105 105 105 106 107 108
118 117 116 116 117 117 117 117 118 119 120 120 118 117 115 113 112 109 108 108 109 107 104 104 105 104 103 103 102 103 104 104 105 109 111 110 109 107 106 105 105 104 104 103 104 104 104 103 102 101 100 100 100 99 98 99 100 102 104 105 106 106 106 107 107 107 106 106 105 105 105 104 104 104 104 104 104 105 105 106 106 107 107 108 108 109
116 114 113 114 116 118 117 117 117 118 119 119 117 116 114 113 111 110 108 109 109 106 104 106 106 104 103 104 105 106 107 107 107 109 111 111 110 108 107 106 106 106 105 105 104 104 104 104 104 103 102 101 101 100 100 100 99 100 102 105 107 108 108 109 109 110 110 110 109 109 108 107 107 106 106 106 106 107 107 107 108 108 108 108 109 109
112 111 108 107 111 115 116 115 115 117 118 118 116 112 111 110 109 109 108 109 109 106 106 108 107 103 102 104 107 109 109 108 108 109 110 111 111 111 109 108 108 108 107 107 106 106 106 106 106 106 105 104 103 102 101 101 101 101 101 103 105 108 110 111 111 112 112 113 113 112 112 111 110 110 109 109 109 109 109 109 109 109 109 109 109 110
106 101 99 100 103 107 111 111 111 114 116 115 110 107 107 108 108 108 108 107 107 106 107 107 105 103 103 104 107 110 111 110 109 110 112 113 113 112 112 111 111 111 110 110 109 109 109 108 108 109 108 108 106 105 103 102 102 102 102 102 103 105 108 110 112 113 114 114 115 115 114 114 113 112 112 112 111 111 111 111 110 110 110 110 110 110
100 95 95 99 101 102 103 104 105 109 110 106 103 105 108 108 108 108 108 107 108 108 107 106 105 104 104 105 107 111 113 113 112 112 113 114 114 113 112 113 113 113 114 113 113 112 111 110 110 110 110 110 109 107 106 104 103 103 103 103 103 104 106 108 110 113 115 116 116 116 116 116 115 115 114 114 114 114 113 113 112 112 112 112 112 112
98 99 99 102 103 102 102 103 105 107 103 97 99 107 111 110 110 110 109 108 108 107 107 106 105 105 106 106 108 111 113 114 114 114 114 114 114 114 114 114 115 115 115 114 114 114 113 112 111 110 110 110 110 110 108 107 105 104 103 103 103 104 105 107 109 111 114 116 117 117 118 117 117 117 117 116 116 116 115 115 114 114 114 114 114 114
97 103 104 103 103 105 107 108 109 108 102 100 106 113 113 110 110 110 109 108 107 107 107 106 104 104 104 104 106 108 112 113 112 112 112 113 113 113 113 114 114 114 113 113 113 113 113 113 111 110 110 110 110 111 110 109 108 106 106 105 104 104 105 107 109 111 113 115 117 118 118 118 119 119 119 118 118 117 117 116 116 116 116 116 116 116
99 104 106 104 104 106 107 109 110 108 105 106 110 110 105 103 104 106 106 105 105 105 104 102 101 101 102 103 104 107 109 110 108 107 108 110 111 112 111 111 111 110 110 110 110 111 112 112 111 110 110 110 111 111 111 110 110 108 107 106 105 105 106 106 108 111 113 115 116 117 118 119 119 119 119 118 118 118 117 117 117 117 117 117 117 117
103 105 106 105 105 107 108 110 111 109 104 101 99 97 96 97 100 102 100 97 97 99 99 98 98 99 100 101 102 103 104 102 99 99 102 104 106 107 107 107 107 107 107 107 107 108 109 109 109 109 109 110 111 112 112 111 111 110 108 107 107 106 106 107 109 111 112 113 115 116 117 118 119 119 118 118 117 117 117 117 117 117 118 118 118 119
110 110 110 108 109 110 110 110 110 105 97 92 90 91 94 96 98 99 97 92 92 96 97 95 93 93 95 96 97 98 97 94 92 94 98 99 99 100 101 101 102 102 103 103 103 103 104 105 105 106 107 108 110 111 112 111 111 110 109 109 108 108 108 109 111 112 112 113 114 116 117 118 119 120 120 120 119 119 119 119 119 120 120 121 121 122
116 115 115 113 112 111 108 107 105 98 90 88 89 91 93 95 97 98 95 92 92 93 93 92 89 87 87 87 88 89 88 86 87 91 94 94 94 94 95 95 96 96 97 98 99 99 100 101 101 102 103 105 107 108 109 110 110 110 109 109 110 110 111 113 113 113 113 114 115 116 117 119 120 121 122 122 122 122 122 122 122 122 123 123 123 124
115 114 113 111 110 108 106 103 100 94 87 86 89 90 91 94 96 95 93 91 91 92 92 92 90 87 84 83 83 83 82 82 83 85 88 91 91 91 91 91 92 92 92 93 95 96 96 96 97 99 100 102 103 104 106 107 108 108 109 109 110 111 113 114 115 116 116 116 116 116 117 118 120 121 122 123 124 124 125 125 125 125 125 125 125 125
109 108 107 106 104 103 100 96 93 89 85 85 88 88 88 90 90 89 88 89 91 93 94 94 92 91 89 86 83 81 81 81 80 81 83 85 87 87 86 86 87 87 88 89 90 91 92 92 93 94 96 98 99 101 102 104 105 106 107 108 109 111 112 114 116 117 118 118 118 117 117 118 119 120 121 122 123 123 124 125 125 125 125 126 126 127
105 103 103 102 99 96 93 91 89 86 84 86 88 85 81 79 77 76 79 85 91 94 95 94 92 90 87 83 80 77 76 75 76 76 77 80 82 83 83 82 82 83 84 85 86 87 88 89 89 90 92 93 95 96 97 99 100 102 104 106 107 109 110 111 113 115 117 119 120 120 119 119 119 120 120 121 121 122 122 123 124 124 125 126 126 127
107 106 104 100 96 92 90 88 86 79 74 75 78 79 77 77 77 76 80 88 93 95 94 92 89 85 81 78 74 72 70 69 69 71 73 76 79 80 81 80 80 79 80 81 82 83 83 84 85 86 87 89 91 92 93 94 95 97 99 101 103 105 107 108 110 111 113 115 117 119 120 120 119 119 119 120 120 121 121 122 122 122 123 123 124 124
106 104 102 99 95 92 90 87 83 77 71 71 75 80 83 84 85 85 87 92 95 94 92 90 87 84 80 75 70 69 68 67 67 68 70 73 75 77 78 78 77 77 77 77 78 78 79 80 81 82 83 84 86 87 89 89 90 91 93 95 97 98 100 102 104 106 107 109 111 114 115 116 117 117 117 117 118 118 119 119 119 119 120 120 121 121
103 103 103 100 96 94 93 91 89 86 83 81 81 82 85 88 91 92 94 97 99 96 92 88 84 82 78 73 68 66 66 67 66 66 66 68 71 72 73 74 75 75 75 75 75 75 75 76 76 78 79 80 81 82 84 85 86 86 88 89 91 92 94 96 97 99 101 102 104 106 108 110 112 113 114 114 115 116 116 117 117 118 118 119 120 120
103 105 106 103 100 98 95 93 93 92 91 88 86 84 88 93 97 97 99 101 100 95 89 86 83 80 76 70 65 63 63 64 65 64 64 64 65 66 68 70 71 72 72 72 71 71 71 71 72 73 74 76 77 79 80 81 82 83 84 85 87 88 90 91 92 94 95 97 98 100 101 103 105 107 109 110 112 113 114 115 116 116 117 118 118 119
101 104 104 103 101 99 95 94 97 98 97 96 95 95 97 99 100 101 101 100 96 91 87 85 82 76 69 64 63 64 65 66 65 64 64 63 62 62 63 65 66 68 68 68 68 68 67 68 68 69 70 72 74 75 77 78 80 81 82 83 84 85 86 87 88 89 90 92 93 95 96 98 100 102 104 105 107 109 110 112 113 113 114 115 115 115
102 102 102 99 98 97 96 97 99 99 97 97 98 98 98 98 97 98 98 96 93 90 87 84 79 71 65 64 65 66 67 67 66 65 64 64 62 61 61 62 63 64 65 65 65 65 66 66 66 67 68 69 71 72 74 76 77 78 80 81 83 84 85 86 87 88 88 89 90 91 92 93 95 97 99 101 103 104 106 108 109 110 110 111 112 112
102 101 99 99 98 96 95 96 96 95 95 95 95 94 93 94 94 94 94 93 93 91 86 82 76 70 66 65 64 65 65 64 63 62 63 63 63 61 60 61 62 63 63 64 64 64 64 65 66 66 67 68 69 71 73 74 76 77 78 80 81 83 84 86 87 89 90 91 91 91 92 92 93 94 96 98 100 101 103 105 106 107 108 109 110 111
98 97 96 96 95 93 93 94 95 95 96 97 97 96 96 96 96 94 93 93 93 89 85 81 77 71 66 64 64 63 61 59 58 59 60 61 61 61 61 62 62 63 63 64 64 64 64 64 65 66 67 68 69 70 72 73 75 76 77 78 80 81 83 84 86 88 90 91 93 94 95 96 97 98 99 99 100 101 102 103 104 106 107 108 109 110
Wind_Direction
230 229 230 231 232 233 233 234 234 234 235 236 237 238 239 240 241 242 242 240 238 237 236 236 236 235 236 238 240 239 239 241 243 246 247 246 245 244 243 244 245 246 247 247 246 244 245 247 249 251 253 256 257 257 256 256 255 256 259 262 262 264 269 271 272 274 276 278 279 281 282 281 281 282 285 287 288 288 291 294 296 296 297 299 299 298
230 229 229 231 232 232 232 233 233 234 235 236 237 238 239 239 241 242 243 242 240 238 237 236 235 235 235 236 239 240 238 238 240 243 246 248 248 247 246 246 246 246 247 248 246 244 243 245 247 250 252 255 257 257 257 257 257 257 258 260 260 262 265 267 269 272 273 275 276 278 280 280 281 282 283 285 286 287 290 293 294 295 296 297 297 297
230 229 229 231 232 232 232 233 234 234 235 236 237 238 239 240 240 242 243 243 242 239 237 237 235 234 236 236 239 241 240 238 239 241 244 247 249 249 248 247 247 247 248 247 245 244 243 244 246 248 251 253 255 257 257 256 256 258 260 261 262 263 265 266 268 269 269 271 274 274 276 279 282 283 283 283 284 285 289 291 293 294 295 296 296 295
230 229 229 231 232 233 233 233 233 234 235 236 237 238 239 239 240 241 242 242 243 241 238 238 237 235 236 236 237 240 239 238 239 241 244 246 248 248 248 248 248 249 249 248 246 245 245 246 247 248 250 252 255 256 257 255 253 253 256 259 261 263 264 265 266 267 267 268 270 272 274 277 279 281 282 282 282 284 287 289 291 292 294 294 295 295
229 227 228 229 231 232 232 233 233 233 234 235 236 237 237 238 239 240 240 241 242 242 240 239 238 235 235 236 236 238 239 238 239 241 242 244 246 247 248 248 249 249 249 249 247 247 246 247 248 250 252 253 254 255 256 256 254 253 254 256 258 260 262 265 265 266 266 266 267 270 272 273 275 279 280 281 283 284 285 287 288 290 291 293 293 293
228 227 227 228 229 230 231 231 232 232 233 233 234 236 236 237 238 239 240 240 241 242 242 241 239 236 236 237 237 240 241 239 239 240 241 242 244 245 247 248 249 249 250 249 248 247 247 248 250 252 253 253 253 254 255 257 258 259 259 259 260 261 263 265 267 267 265 265 266 268 270 271 273 276 277 278 281 283 283 284 286 287 289 291 291 291
228 227 228 229 229 230 231 231 231 231 232 232 233 235 235 236 238 238 239 240 241 242 242 243 242 238 237 239 238 240 241 239 239 240 240 242 243 244 245 246 247 248 249 249 248 248 248 249 251 253 253 253 254 255 256 258 259 260 261 261 261 262 264 265 266 266 264 264 266 267 269 270 270 271 274 276 278 280 281 283 284 286 287 288 289 289
228 228 228 229 230 231 231 232 233 233 233 232 233 234 234 235 237 239 239 240 241 241 241 243 244 240 236 238 239 238 240 240 239 239 239 240 242 243 243 244 245 246 247 249 249 249 249 250 252 253 253 254 255 256 258 258 258 259 259 260 261 262 263 263 264 265 264 264 266 269 270 269 268 269 272 276 278 281 281 281 281 282 283 285 286 287
228 228 229 229 230 230 231 232 233 234 233 232 233 234 234 235 237 238 240 240 241 241 241 242 245 243 237 237 240 239 239 240 239 237 237 238 240 241 242 243 244 246 247 248 249 250 250 250 251 253 253 255 256 257 258 258 258 258 258 259 260 261 262 263 264 265 265 265 268 271 272 270 269 270 272 275 278 279 278 277 277 278 280 283 286 287
227 227 228 229 229 229 230 231 232 233 232 232 232 234 235 235 237 238 240 241 241 241 241 241 244 245 239 235 240 242 238 237 237 237 236 237 238 239 241 243 243 244 245 246 247 248 249 250 251 253 254 255 256 257 257 257 257 257 257 258 259 261 263 264 266 266 265 266 268 270 271 271 272 272 272 274 276 277 277 276 276 277 280 283 286 287
226 226 227 228 228 229 229 230 231 232 232 232 232 234 235 235 236 237 239 240 242 242 241 241 242 244 241 235 237 241 238 236 236 237 236 236 237 238 239 241 242 242 243 244 245 247 248 250 251 253 254 254 255 256 257 257 257 257 257 258 259 261 263 265 266 266 265 266 268 269 270 271 272 273 274 275 277 278 278 277 276 277 280 283 285 287
228 227 228 228 228 228 229 231 232 233 233 233 233 235 236 236 236 237 239 240 242 242 240 240 241 243 243 236 234 239 239 238 237 237 237 236 236 238 239 240 241 241 241 243 245 246 248 250 251 252 253 254 254 255 256 256 257 257 257 258 259 262 264 265 265 265 265 266 267 268 269 270 272 273 275 276 278 279 279 279 278 278 279 282 284 285
229 229 230 230 230 230 230 231 232 233 233 234 235 236 236 237 237 238 239 241 241 241 240 240 241 244 244 236 232 239 241 240 240 239 239 238 237 237 239 240 241 242 242 243 244 246 247 249 250 251 252 253 254 254 255 256 257 257 257 257 259 261 262 263 264 265 266 266 267 267 268 269 271 273 274 276 278 280 281 281 280 279 279 281 283 285
231 231 231 231 232 232 233 234 234 235 235 236 236 237 238 238 238 239 239 239 240 240 240 241 242 244 244 237 232 238 243 244 243 242 241 241 240 239 239 241 242 243 243 243 244 245 246 247 249 250 251 252 253 254 254 256 257 257 257 258 258 260 261 263 264 265 266 267 267 268 268 269 271 272 274 277 279 280 281 281 280 279 279 280 282 284
231 232 232 233 234 234 235 236 237 237 237 237 237 237 237 237 238 238 237 238 239 239 240 241 242 242 242 239 234 236 243 247 247 246 245 243 241 240 240 241 242 243 244 244 245 245 246 247 248 250 251 252 253 254 254 255 257 257 258 258 258 259 261 262 264 265 266 267 267 268 269 270 271 273 275 278 280 280 281 281 281 280 279 279 281 284
230 231 231 232 233 234 235 236 237 238 238 238 238 238 238 238 239 239 239 239 239 239 239 240 241 241 239 239 238 238 242 247 247 247 247 245 243 242 241 241 242 244 245 246 246 246 246 247 248 249 251 252 252 253 254 255 256 258 258 259 259 259 260 261 263 264 265 266 267 268 269 270 272 275 277 278 279 280 281 282 281 280 279 279 281 284
232 232 231 231 232 232 233 234 235 236 236 237 237 238 239 239 240 240 240 239 239 238 239 240 240 240 239 239 240 240 240 244 246 246 247 247 246 244 243 242 243 244 245 246 247 247 247 247 248 249 250 251 252 253 254 255 256 257 258 259 259 259 259 260 261 262 264 265 266 267 269 271 273 274 276 278 279 280 281 281 281 280 280 280 282 283
231 232 232 233 233 233 233 234 234 235 236 236 236 237 238 238 239 240 240 239 239 239 239 240 240 240 239 239 240 240 240 241 245 247 247 248 249 247 246 244 243 244 245 246 247 248 249 249 249 250 250 251 251 252 253 255 256 257 258 258 258 258 259 259 260 261 262 264 265 266 268 270 271 273 275 277 278 279 280 281 281 281 281 281 281 282
230 230 230 231 232 233 233 234 235 235 236 237 237 238 238 239 239 240 241 240 240 241 240 239 240 239 239 239 238 240 241 241 244 247 248 248 249 249 249 247 246 244 245 246 247 248 249 250 250 250 251 251 251 252 253 254 255 256 257 257 257 258 258 259 260 261 262 263 264 265 267 269 270 272 274 275 277 278 279 280 280 280 280 280 281 281
230 230 230 231 231 232 232 233 234 235 237 238 238 238 239 240 240 241 242 241 241 241 240 239 239 239 239 239 238 239 241 242 243 246 248 248 249 250 250 250 250 248 246 246 247 248 249 250 251 251 251 252 252 252 252 253 254 255 256 257 257 257 258 259 260 261 262 263 264 265 266 268 269 271 272 274 276 277 277 278 279 279 279 280 280 280
230 231 232 232 232 233 233 234 235 236 237 238 238 239 240 241 241 242 242 242 241 240 240 239 238 238 239 240 240 240 241 242 243 245 248 249 249 250 251 252 252 252 250 248 247 248 249 249 250 250 251 252 252 253 253 253 253 254 255 256 257 257 258 258 259 260 261 263 264 266 266 267 269 270 272 274 275 275 276 277 278 278 279 279 279 280
231 232 232 233 234 234 235 236 236 237 237 238 238 239 239 240 240 241 242 243 243 242 242 241 240 238 240 242 242 242 241 242 242 243 246 249 250 250 251 252 253 253 252 251 249 248 248 248 249 249 250 251 252 253 253 253 253 254 255 255 256 257 258 259 259 260 262 263 265 266 267 268 269 270 271 273 274 274 275 276 277 278 278 279 279 279
231 232 232 233 234 234 235 236 237 237 238 238 238 239 240 241 242 243 244 245 246 245 244 243 241 238 239 243 243 242 242 241 242 242 244 247 249 250 250 251 252 253 254 254 252 250 249 248 248 249 249 250 251 252 253 253 254 254 255 255 256 257 258 259 260 261 262 263 265 266 267 268 269 270 271 272 273 273 274 275 277 277 278 278 278 279
232 232 232 232 233 234 235 235 236 237 238 239 240 241 242 243 244 245 245 245 246 246 245 244 242 238 239 243 243 243 243 242 243 243 244 245 248 250 251 251 251 253 254 255 255 254 252 250 249 249 249 250 250 251 252 253 254 254 255 256 256 257 257 258 259 260 262 263 265 266 267 268 269 270 270 271 272 273 274 275 276 277 277 278 278 278
234 233 233 233 233 234 235 236 237 238 240 241 242 243 244 244 245 245 246 246 246 246 246 245 243 240 240 243 244 245 245 245 244 245 245 245 246 248 250 252 252 253 254 255 256 256 256 254 252 251 250 250 251 252 253 253 254 255 255 256 256 257 257 258 259 260 261 263 264 265 266 267 268 269 270 271 272 273 274 274 275 276 277 277 278 279
235 234 234 234 234 235 236 238 239 240 241 242 243 244 244 244 244 244 244 244 244 244 245 245 245 244 243 244 245 246 247 247 246 246 246 246 246 247 248 251 252 253 254 254 255 256 257 257 256 254 253 252 252 252 253 253 254 255 256 256 257 257 257 258 259 260 261 262 264 265 266 267 268 269 270 271 272 273 274 274 275 275 277 277 278 279
234 235 234 234 234 234 235 237 238 238 239 240 240 241 241 241 241 241 242 242 243 244 246 247 248 248 247 246 246 245 246 248 248 247 246 246 247 247 247 249 251 252 253 254 255 256 256 257 257 257 256 255 253 253 253 253 253 254 255 256 257 258 258 259 259 260 261 262 263 264 265 266 267 269 269 271 272 273 273 274 274 275 276 277 278 279
234 236 236 235 235 235 235 236 236 237 237 238 238 239 240 241 242 243 245 246 247 248 248 249 250 250 249 249 248 246 246 248 250 249 248 247 247 247 247 247 249 250 252 254 255 256 257 257 257 258 257 257 256 255 254 254 254 254 255 255 257 258 259 259 260 261 262 262 263 264 265 266 267 268 269 270 271 272 272 273 274 275 276 277 278 279
234 236 237 237 237 236 236 236 237 238 239 239 240 241 243 244 246 247 248 249 249 249 249 250 251 251 251 251 251 250 248 248 250 250 250 249 248 247 248 248 249 250 251 253 255 256 257 258 258 258 258 258 257 256 255 255 255 255 255 255 256 257 258 259 260 261 262 263 263 264 264 265 266 267 268 269 270 271 272 273 274 275 276 277 278 279
235 237 238 239 239 238 237 237 238 239 240 241 242 243 245 246 247 248 249 250 250 251 251 251 252 252 252 253 254 253 251 249 249 249 250 251 250 250 250 250 250 251 251 252 254 256 257 258 259 259 259 258 258 257 257 256 256 256 256 256 256 257 257 258 259 261 262 262 263 264 264 265 266 267 268 269 270 271 272 273 274 275 276 277 278 279
235 237 238 240 241 241 240 239 239 240 241 242 242 244 245 247 248 250 251 251 252 252 253 253 253 253 254 255 256 255 253 252 250 250 251 253 254 253 252 252 252 252 252 252 253 254 256 257 258 259 259 259 259 258 258 258 258 257 257 257 257 257 257 258 258 259 260 261 263 263 264 265 265 266 267 268 269 270 271 273 274 275 276 277 278 279
236 238 239 241 242 243 242 242 242 242 242 243 243 245 247 248 250 251 252 252 253 253 253 254 254 254 255 256 257 257 256 255 255 254 253 253 254 255 254 253 253 253 252 252 252 253 254 256 257 258 259 259 260 260 259 259 259 259 258 258 257 257 257 258 258 259 260 261 262 263 263 264 265 266 267 268 269 270 271 272 273 274 276 277 278 279
237 237 237 238 241 243 243 244 244 244 244 244 244 246 247 248 249 249 250 251 252 253 253 254 255 256 256 258 259 259 259 258 257 257 255 255 255 256 257 257 256 255 254 253 253 253 254 255 256 258 259 260 260 260 260 259 259 259 259 259 259 258 258 258 258 259 259 260 261 262 263 264 264 265 266 268 268 269 271 272 273 274 275 277 278 279
236 234 234 236 239 242 243 244 245 246 246 247 247 247 247 247 248 249 250 251 253 254 255 256 257 258 258 259 260 260 260 260 259 258 258 257 257 257 258 258 258 257 256 255 254 254 254 254 255 257 259 260 260 260 260 259 259 259 260 260 260 260 259 259 259 259 259 260 260 261 262 263 264 265 266 267 268 269 270 272 273 274 275 276 277 279
232 232 233 236 239 241 243 244 246 248 249 250 250 249 249 249 250 251 251 253 254 255 256 256 257 258 258 259 259 260 260 260 260 259 259 258 258 258 258 258 258 259 258 258 257 256 255 255 255 256 257 259 260 260 260 260 260 260 260 259 259 260 260 260 259 259 259 260 260 261 261 262 263 264 265 266 268 269 270 271 272 273 274 275 277 278
231 232 234 236 239 241 243 245 247 248 248 248 249 250 250 251 252 252 253 254 255 256 256 256 257 258 259 260 260 260 260 261 261 262 261 260 259 258 258 259 259 259 260 260 259 259 258 257 256 256 256 257 258 259 260 260 260 260 260 259 259 259 259 259 259 259 259 260 260 261 262 262 263 264 265 266 267 268 269 270 271 273 274 275 276 277
232 234 236 238 240 242 243 244 245 245 245 246 248 250 252 253 254 254 255 255 256 257 257 258 258 260 261 261 262 262 262 263 264 264 264 263 261 260 259 260 260 260 260 260 260 260 259 259 258 257 257 257 257 257 258 259 260 260 260 259 259 259 259 259 259 259 259 260 260 261 262 263 264 265 266 267 268 268 269 270 271 272 273 274 275 276
232 234 237 238 240 241 242 243 243 243 244 246 249 252 254 255 256 256 256 257 259 260 260 261 262 263 264 264 264 264 264 265 265 266 265 265 264 263 262 261 260 260 260 261 260 260 260 259 259 258 257 257 257 257 257 258 258 259 259 259 259 259 259 259 259 259 259 260 260 261 261 262 263 264 265 266 267 268 269 270 270 271 272 273 274 274
231 233 235 237 238 239 241 243 244 245 245 247 249 251 253 255 256 256 257 259 262 263 264 264 264 264 264 264 264 264 264 265 265 265 265 266 267 266 266 264 263 262 261 261 261 260 260 260 259 259 258 257 257 257 257 257 257 257 258 258 258 258 258 258 258 258 259 259 260 260 260 261 262 263 264 265 266 267 268 268 269 270 271 272 272 273
234 236 238 239 240 241 242 244 245 246 246 248 250 251 254 256 258 259 260 262 263 264 264 263 262 261 261 262 263 264 265 265 264 265 266 266 267 267 267 267 266 264 263 262 261 260 260 260 259 259 258 257 257 257 257 257 256 256 256 256 256 256 256 257 257 258 259 259 259 260 260 261 261 262 263 264 265 266 267 268 269 270 270 271 272 273
238 240 241 242 243 244 245 246 248 249 250 252 254 255 257 260 262 264 265 265 263 262 261 260 259 259 260 263 265 266 267 266 266 266 267 267 266 267 267 267 267 266 264 263 262 261 260 260 259 259 258 258 257 257 256 256 256 256 255 255 255 255 255 256 257 258 258 259 259 260 260 261 261 262 263 263 264 265 266 267 268 270 271 272 273 274
239 240 241 241 243 245 246 248 250 252 253 255 257 259 261 263 266 266 265 263 261 260 259 260 261 262 264 267 269 270 270 269 268 268 268 268 268 267 266 266 266 266 265 264 263 262 261 261 260 260 260 259 259 258 257 256 256 255 255 254 254 254 255 255 256 256 257 258 259 260 260 261 262 262 263 264 265 265 266 267 269 270 271 272 273 274
237 238 239 241 242 245 247 248 250 253 256 258 259 260 261 262 262 261 260 260 261 262 264 265 266 267 268 270 271 271 270 269 269 269 268 268 268 267 266 266 265 266 266 266 265 264 263 263 262 261 261 260 260 260 259 258 257 256 256 255 255 255 255 256 256 256 257 257 258 259 260 261 262 263 264 264 265 266 267 268 269 270 271 272 273 274
234 235 237 240 242 244 247 250 252 253 254 255 255 255 254 253 253 256 259 262 264 266 269 271 272 272 272 272 271 270 269 269 269 268 266 265 265 266 267 267 267 267 267 267 267 266 265 264 263 262 261 261 261 261 260 260 259 258 257 257 256 256 256 256 257 257 258 258 259 259 260 261 262 263 264 265 266 267 268 268 269 270 271 272 273 274
234 236 238 240 242 244 246 248 249 247 245 246 249 251 252 253 255 258 260 263 266 269 271 273 275 275 274 273 272 272 272 271 270 267 265 263 264 265 266 268 268 269 268 268 267 267 266 265 264 263 263 262 262 261 261 261 261 260 260 259 259 258 258 258 258 258 259 259 260 260 261 262 262 263 264 265 266 267 268 269 270 271 272 273 273 274
236 239 240 241 242 243 244 245 246 246 245 247 250 253 254 256 258 260 262 265 268 271 272 274 275 275 274 274 276 276 275 275 275 273 269 266 266 266 268 269 269 269 269 268 268 268 267 266 266 265 264 263 262 262 262 261 261 261 261 261 260 260 260 260 260 260 260 261 261 261 262 263 263 264 265 266 267 268 269 270 270 271 272 273 274 274
238 239 240 240 240 241 242 244 246 248 248 250 252 254 255 257 260 262 265 267 269 271 272 274 274 275 276 278 280 280 279 279 280 279 276 272 269 267 267 268 268 268 267 267 267 267 266 265 265 264 264 263 263 262 262 262 262 261 261 261 261 261 261 262 262 262 262 262 262 263 263 264 264 265 266 267 268 269 269 270 271 272 273 273 274 275
239 240 240 241 241 242 243 245 247 248 249 251 253 255 258 261 263 265 265 266 268 270 272 273 274 276 280 284 285 284 281 278 277 278 277 274 271 267 266 266 266 266 266 266 266 266 266 265 265 264 263 263 263 263 262 262 262 262 262 261 261 261 261 261 261 262 263 263 264 264 264 265 265 266 266 267 268 269 270 271 272 272 273 274 274 275
237 238 239 240 242 243 244 245 248 250 252 254 256 258 260 261 262 262 263 265 267 269 271 273 274 277 283 286 286 284 280 275 272 273 273 272 270 268 267 267 267 267 266 266 267 267 267 267 266 265 264 263 262 262 262 262 262 261 261 261 261 261 260 260 260 261 261 262 263 264 265 265 266 267 267 268 268 269 270 271 271 272 273 273 274 275
236 237 239 240 242 244 246 248 250 253 254 255 256 256 257 257 258 260 263 266 268 271 273 273 275 279 283 283 283 283 280 275 271 269 269 269 269 269 269 269 268 268 268 267 267 267 267 267 267 266 265 264 263 262 262 261 261 261 260 260 260 260 260 260 260 261 261 261 262 263 263 264 265 266 267 267 268 268 269 270 270 271 272 272 273 274
238 240 242 243 245 247 249 250 251 252 253 253 254 254 255 257 260 263 266 268 271 272 273 273 276 281 283 281 281 281 277 272 269 267 266 267 267 268 268 268 268 268 268 268 269 269 269 269 269 268 267 266 265 264 263 262 262 261 261 260 260 260 260 260 261 261 261 262 262 262 263 263 264 265 265 266 266 267 267 268 269 269 270 271 272 272
Height
10732 10737 10747 10758 10764 10767 10768 10769 10770 10774 10775 10775 10778 10781 10785 10788 10791 10795 10800 10808 10814 10820 10825 10829 10832 10831 10827 10830 10836 10843 10850 10852 10853 10856 10858 10861 10864 10866 10868 10870 10872 10872 10872 10876 10880 10881 10881 10881 10881 10882 10882 10883 10883 10883 10884 10884 10885 10885 10885 10885 10885 10886 10886 10884 10884 10884 10884 10884 10884 10883 10881 10880 10879 10878 10878 10878 10876 10874 10873 10872 10871 10869 10868 10868 10867 10865
10723 10734 10748 10753 10755 10757 10757 10758 10761 10765 10768 10770 10773 10777 10780 10784 10786 10788 10794 10801 10807 10815 10818 10821 10827 10827 10823 10824 10829 10838 10846 10847 10847 10850 10852 10855 10858 10861 10864 10865 10866 10867 10869 10873 10875 10876 10875 10875 10877 10878 10878 10878 10878 10879 10879 10880 10880 10881 10881 10880 10881 10882 10882 10880 10880 10880 10880 10880 10880 10879 10877 10876 10875 10875 10875 10874 10872 10871 10869 10868 10866 10865 10864 10863 10862 10861
10721 10737 10747 10744 10744 10747 10748 10751 10755 10760 10763 10766 10769 10773 10776 10779 10780 10782 10789 10794 10799 10807 10811 10814 10822 10823 10820 10822 10826 10833 10841 10841 10840 10844 10846 10849 10853 10857 10858 10859 10860 10862 10865 10868 10870 10870 10870 10870 10872 10873 10873 10873 10873 10875 10875 10875 10876 10877 10877 10876 10876 10878 10877 10876 10876 10876 10876 10876 10875 10874 10873 10872 10871 10871 10871 10869 10868 10867 10865 10864 10862 10861 10860 10859 10858 10857
10722 10736 10737 10732 10734 10738 10741 10745 10750 10755 10759 10762 10766 10769 10772 10772 10772 10777 10782 10786 10790 10798 10804 10808 10816 10820 10817 10818 10822 10826 10832 10833 10834 10838 10841 10844 10848 10850 10851 10853 10855 10857 10859 10862 10864 10864 10865 10865 10867 10867 10867 10868 10868 10870 10870 10871 10872 10872 10872 10872 10872 10873 10873 10872 10871 10870 10871 10871 10871 10870 10869 10868 10867 10867 10866 10865 10864 10863 10861 10859 10857 10856 10855 10854 10853 10852
10713 10721 10719 10719 10723 10727 10732 10737 10743 10749 10753 10757 10760 10762 10765 10764 10765 10770 10774 10779 10784 10790 10798 10802 10809 10816 10813 10814 10817 10817 10824 10828 10829 10834 10837 10840 10842 10842 10845 10847 10849 10850 10851 10855 10858 10859 10860 10860 10861 10862 10862 10863 10863 10863 10864 10865 10866 10867 10867 10867 10868 10868 10867 10867 10866 10866 10866 10866 10865 10865 10864 10864 10862 10862 10862 10861 10860 10860 10857 10855 10853 10851 10850 10850 10848 10847
10701 10706 10706 10708 10712 10716 10721 10729 10736 10741 10745 10749 10753 10755 10757 10756 10757 10763 10768 10773 10778 10785 10792 10794 10802 10811 10809 10810 10813 10811 10819 10826 10824 10829 10833 10833 10834 10836 10839 10841 10841 10843 10844 10847 10851 10853 10854 10855 10855 10857 10857 10857 10857 10857 10858 10860 10862 10863 10862 10862 10863 10863 10862 10862 10862 10862 10862 10861 10860 10860 10859 10858 10858 10857 10857 10856 10856 10855 10853 10851 10849 10847 10846 10845 10844 10842
10690 10697 10699 10702 10706 10710 10715 10722 10728 10732 10737 10743 10748 10747 10747 10748 10750 10756 10761 10766 10774 10781 10785 10786 10795 10807 10805 10806 10809 10807 10814 10822 10821 10824 10828 10826 10827 10830 10832 10832 10833 10836 10837 10839 10843 10846 10848 10849 10850 10851 10850 10850 10851 10851 10853 10856 10857 10857 10856 10857 10858 10857 10857 10857 10857 10858 10857 10856 10855 10854 10854 10853 10853 10852 10852 10852 10851 10850 10848 10846 10844 10842 10841 10840 10839 10838
10685 10691 10692 10696 10700 10704 10711 10720 10724 10726 10730 10738 10740 10736 10737 10741 10743 10749 10755 10761 10770 10775 10779 10781 10788 10800 10803 10801 10801 10802 10809 10816 10818 10819 10820 10819 10819 10822 10824 10825 10826 10828 10829 10831 10835 10838 10841 10842 10844 10844 10844 10845 10845 10847 10850 10852 10851 10851 10851 10851 10852 10851 10851 10851 10851 10852 10852 10850 10849 10849 10849 10848 10847 10846 10846 10847 10846 10844 10843 10841 10839 10837 10836 10834 10833 10832
10679 10683 10686 10690 10692 10698 10708 10714 10716 10715 10721 10730 10730 10726 10730 10734 10737 10744 10749 10756 10763 10768 10775 10779 10780 10789 10801 10797 10791 10798 10807 10810 10811 10810 10810 10810 10811 10814 10817 10818 10820 10821 10822 10824 10827 10830 10833 10835 10837 10837 10839 10841 10841 10843 10845 10845 10844 10845 10845 10845 10846 10845 10844 10845 10846 10846 10846 10844 10844 10844 10843 10842 10840 10840 10841 10841 10840 10838 10837 10836 10833 10831 10830 10828 10827 10826
10665 10672 10676 10676 10679 10690 10699 10702 10702 10702 10709 10719 10719 10718 10723 10729 10734 10739 10744 10750 10755 10762 10774 10776 10773 10780 10793 10794 10787 10793 10801 10799 10799 10801 10802 10803 10804 10807 10810 10810 10812 10814 10815 10818 10820 10822 10825 10827 10829 10831 10834 10836 10836 10837 10839 10839 10839 10839 10839 10839 10840 10839 10838 10840 10841 10841 10840 10838 10838 10838 10837 10835 10834 10834 10835 10834 10833 10832 10831 10830 10828 10826 10824 10822 10820 10819
10653 10660 10661 10663 10672 10684 10689 10690 10690 10692 10700 10708 10711 10714 10718 10724 10730 10734 10739 10744 10747 10760 10771 10769 10766 10769 10782 10792 10786 10784 10789 10788 10790 10793 10793 10795 10798 10800 10802 10802 10803 10807 10809 10810 10812 10814 10816 10819 10822 10825 10828 10828 10830 10831 10832 10832 10832 10832 10833 10833 10833 10833 10833 10834 10835 10835 10834 10833 10832 10831 10830 10829 10828 10828 10828 10828 10827 10826 10825 10824 10822 10821 10818 10816 10814 10813
10646 10650 10653 10659 10669 10677 10681 10682 10683 10687 10696 10704 10708 10712 10714 10719 10725 10729 10735 10738 10744 10757 10763 10759 10757 10758 10774 10790 10782 10772 10776 10780 10784 10786 10785 10788 10792 10792 10794 10795 10795 10799 10802 10803 10806 10807 10809 10812 10816 10819 10820 10820 10823 10825 10825 10825 10826 10827 10827 10828 10827 10827 10827 10827 10828 10829 10828 10828 10827 10825 10824 10823 10822 10822 10822 10821 10820 10820 10819 10818 10816 10815 10812 10810 10808 10807
10642 10648 10653 10659 10665 10671 10675 10675 10677 10684 10693 10701 10707 10709 10710 10715 10721 10726 10732 10735 10740 10747 10750 10749 10747 10752 10770 10783 10776 10767 10769 10774 10777 10778 10779 10782 10785 10786 10787 10788 10789 10792 10795 10798 10799 10801 10802 10805 10808 10811 10812 10813 10815 10817 10817 10818 10820 10821 10822 10822 10822 10821 10820 10820 10821 10822 10822 10822 10821 10819 10818 10818 10817 10817 10816 10815 10815 10813 10813 10812 10810 10809 10806 10803 10801 10800
10638 10643 10648 10653 10661 10669 10672 10673 10678 10687 10694 10699 10704 10704 10705 10711 10716 10720 10723 10725 10729 10734 10738 10739 10739 10751 10768 10774 10772 10767 10762 10766 10770 10770 10773 10776 10779 10780 10780 10781 10783 10785 10788 10790 10792 10794 10796 10798 10799 10803 10805 10806 10808 10808 10809 10811 10812 10814 10815 10816 10816 10814 10814 10815 10814 10815 10815 10815 10814 10813 10813 10812 10811 10811 10810 10809 10809 10807 10806 10805 10804 10802 10800 10797 10795 10793
10630 10636 10645 10654 10662 10668 10671 10673 10678 10684 10686 10689 10693 10693 10696 10702 10704 10706 10709 10714 10720 10725 10729 10731 10736 10752 10762 10762 10766 10764 10756 10757 10761 10762 10765 10768 10770 10772 10773 10775 10776 10778 10779 10782 10785 10787 10790 10791 10793 10795 10797 10799 10800 10800 10802 10804 10805 10807 10808 10809 10809 10808 10808 10809 10808 10808 10808 10807 10807 10807 10806 10805 10805 10805 10804 10803 10802 10801 10800 10799 10797 10795 10793 10791 10788 10786
10623 10629 10641 10648 10654 10659 10660 10663 10668 10670 10673 10679 10684 10685 10689 10696 10697 10697 10702 10708 10712 10715 10720 10725 10734 10748 10753 10752 10758 10759 10755 10751 10751 10754 10755 10757 10761 10764 10767 10769 10768 10771 10773 10774 10778 10781 10783 10785 10787 10790 10791 10792 10793 10793 10794 10796 10798 10800 10801 10802 10802 10801 10801 10802 10802 10802 10801 10800 10799 10799 10799 10798 10798 10798 10797 10796 10794 10794 10793 10792 10790 10788 10785 10783 10781 10779
10619 10626 10635 10638 10642 10644 10645 10650 10653 10655 10660 10666 10671 10677 10684 10688 10686 10685 10691 10696 10699 10704 10713 10722 10732 10741 10744 10748 10752 10751 10749 10745 10741 10744 10746 10746 10751 10755 10759 10761 10761 10764 10766 10769 10772 10773 10776 10779 10781 10783 10784 10785 10786 10786 10786 10788 10790 10792 10793 10794 10795 10794 10794 10795 10795 10794 10793 10793 10793 10792 10791 10791 10791 10790 10789 10788 10786 10786 10785 10784 10782 10779 10777 10775 10773 10770
10610 10619 10625 10628 10632 10633 10636 10640 10641 10642 10647 10654 10663 10671 10674 10672 10671 10674 10679 10686 10691 10699 10711 10720 10727 10733 10737 10744 10746 10739 10738 10738 10734 10735 10738 10738 10741 10744 10749 10752 10755 10758 10760 10763 10765 10765 10768 10772 10774 10776 10777 10778 10779 10779 10780 10780 10782 10785 10786 10787 10787 10786 10787 10786 10786 10786 10786 10786 10785 10784 10783 10783 10783 10782 10781 10780 10779 10778 10777 10776 10773 10771 10769 10767 10764 10762
10597 10603 10608 10613 10618 10621 10626 10629 10629 10634 10641 10649 10658 10663 10662 10662 10667 10669 10671 10681 10688 10693 10704 10713 10717 10722 10730 10738 10736 10727 10728 10731 10729 10728 10729 10731 10733 10735 10739 10742 10746 10751 10754 10756 10758 10759 10762 10764 10766 10768 10769 10770 10772 10772 10773 10773 10775 10776 10777 10778 10779 10778 10778 10778 10778 10779 10778 10778 10777 10776 10776 10775 10775 10774 10773 10772 10771 10770 10769 10767 10764 10762 10760 10758 10756 10754
10586 10590 10595 10602 10606 10608 10612 10616 10622 10631 10636 10641 10647 10650 10652 10656 10662 10664 10665 10674 10681 10682 10691 10700 10705 10715 10726 10729 10724 10720 10721 10724 10724 10722 10720 10723 10726 10728 10730 10733 10737 10742 10747 10750 10752 10753 10755 10756 10758 10759 10760 10762 10763 10764 10765 10766 10767 10768 10769 10770 10770 10770 10770 10770 10770 10770 10770 10770 10769 10769 10768 10768 10767 10766 10766 10765 10764 10762 10761 10759 10756 10754 10751 10749 10748 10746
10576 10581 10588 10594 10595 10599 10605 10612 10621 10626 10626 10631 10637 10641 10646 10650 10653 10655 10654 10658 10664 10669 10677 10687 10698 10714 10722 10718 10714 10715 10715 10715 10717 10716 10713 10714 10718 10720 10722 10724 10727 10732 10737 10741 10744 10747 10748 10748 10750 10751 10752 10753 10754 10756 10757 10758 10758 10759 10760 10761 10762 10761 10761 10761 10761 10760 10761 10761 10761 10761 10760 10760 10760 10759 10758 10757 10756 10754 10753 10750 10748 10745 10742 10741 10740 10738
10567 10573 10580 10584 10589 10597 10605 10611 10613 10615 10618 10623 10627 10630 10633 10634 10635 10638 10641 10647 10655 10663 10672 10680 10693 10713 10717 10708 10705 10706 10705 10706 10707 10708 10707 10705 10708 10712 10715 10716 10718 10720 10725 10729 10734 10737 10739 10740 10741 10742 10744 10745 10745 10746 10748 10749 10750 10751 10752 10753 10753 10753 10753 10752 10751 10751 10752 10753 10753 10753 10752 10751 10752 10751 10750 10749 10748 10746 10744 10742 10739 10737 10734 10733 10732 10730
10558 10563 10568 10574 10582 10589 10595 10598 10599 10603 10608 10609 10612 10619 10622 10624 10630 10635 10641 10649 10651 10656 10665 10669 10681 10706 10710 10696 10692 10692 10692 10696 10697 10699 10701 10698 10699 10703 10706 10709 10709 10709 10713 10718 10722 10726 10730 10732 10732 10733 10734 10735 10737 10738 10739 10741 10742 10742 10743 10743 10744 10745 10744 10743 10743 10743 10743 10744 10744 10743 10743 10743 10742 10742 10741 10740 10739 10737 10735 10734 10731 10729 10727 10724 10723 10720
10545 10549 10554 10563 10571 10574 10579 10584 10586 10589 10593 10599 10609 10616 10617 10623 10629 10629 10634 10642 10640 10644 10655 10656 10668 10696 10700 10682 10677 10680 10682 10688 10690 10691 10694 10693 10693 10694 10696 10700 10702 10701 10704 10708 10711 10715 10718 10722 10724 10724 10726 10726 10728 10729 10730 10732 10732 10733 10733 10734 10735 10735 10735 10735 10734 10734 10735 10735 10735 10734 10734 10733 10733 10732 10731 10730 10729 10728 10726 10725 10723 10721 10719 10716 10713 10710
10533 10537 10546 10554 10558 10563 10570 10575 10579 10586 10595 10604 10611 10611 10612 10617 10617 10617 10625 10630 10630 10638 10643 10641 10656 10683 10685 10671 10669 10674 10676 10681 10684 10685 10685 10687 10689 10689 10689 10691 10694 10695 10697 10699 10702 10704 10707 10711 10714 10716 10718 10718 10719 10720 10721 10722 10723 10723 10723 10724 10725 10725 10725 10726 10726 10726 10726 10726 10726 10726 10725 10724 10723 10722 10721 10720 10720 10719 10717 10716 10714 10712 10710 10707 10704 10700
10518 10526 10538 10544 10550 10561 10570 10575 10582 10590 10596 10600 10601 10599 10600 10601 10599 10603 10608 10608 10616 10626 10626 10630 10651 10670 10671 10664 10667 10672 10671 10670 10673 10675 10675 10677 10681 10683 10683 10684 10684 10686 10688 10690 10692 10694 10696 10700 10703 10706 10709 10710 10711 10711 10712 10712 10713 10713 10713 10714 10715 10716 10716 10717 10717 10717 10717 10717 10717 10717 10715 10715 10713 10712 10711 10711 10710 10709 10707 10706 10705 10702 10699 10696 10694 10691
10507 10514 10525 10534 10544 10555 10560 10562 10567 10573 10576 10577 10576 10573 10572 10573 10575 10581 10585 10595 10611 10619 10621 10635 10650 10654 10654 10655 10659 10665 10663 10657 10658 10662 10665 10668 10671 10674 10676 10677 10676 10676 10678 10680 10682 10684 10686 10688 10691 10695 10698 10700 10701 10702 10702 10702 10703 10704 10704 10704 10705 10706 10707 10707 10708 10708 10708 10708 10708 10707 10706 10704 10703 10703 10702 10701 10700 10699 10697 10696 10694 10692 10689 10686 10683 10680
10499 10507 10519 10527 10534 10540 10543 10545 10549 10553 10554 10553 10550 10551 10555 10562 10568 10577 10590 10606 10615 10615 10624 10637 10635 10633 10642 10645 10646 10654 10655 10648 10646 10650 10655 10658 10660 10663 10666 10668 10668 10667 10668 10670 10671 10672 10675 10677 10680 10683 10685 10688 10690 10691 10692 10693 10693 10694 10695 10696 10696 10697 10697 10697 10698 10698 10698 10698 10697 10696 10695 10694 10694 10693 10692 10691 10690 10688 10687 10685 10683 10681 10679 10676 10672 10670
10493 10501 10511 10515 10521 10528 10533 10538 10542 10543 10543 10542 10544 10552 10559 10566 10575 10586 10598 10605 10603 10606 10620 10625 10619 10624 10635 10633 10633 10641 10644 10641 10640 10638 10640 10643 10646 10652 10655 10658 10660 10661 10661 10662 10662 10663 10665 10667 10669 10671 10673 10676 10678 10680 10682 10683 10684 10685 10686 10687 10688 10688 10688 10687 10687 10687 10687 10687 10686 10685 10685 10685 10684 10683 10682 10681 10679 10678 10676 10674 10672 10670 10669 10666 10663 10660
10486 10494 10500 10504 10510 10517 10522 10528 10532 10532 10533 10538 10545 10553 10559 10566 10575 10584 10590 10591 10592 10601 10612 10612 10609 10616 10623 10620 10620 10624 10626 10631 10633 10629 10628 10629 10635 10644 10649 10651 10653 10654 10654 10655 10655 10655 10655 10655 10657 10658 10660 10662 10665 10668 10671 10672 10674 10675 10676 10677 10677 10678 10678 10677 10677 10676 10675 10675 10675 10674 10674 10674 10673 10672 10671 10670 10669 10667 10666 10664 10661 10659 10657 10655 10652 10650
10481 10488 10494 10498 10500 10504 10512 10520 10523 10524 10527 10533 10540 10549 10557 10565 10571 10578 10582 10582 10583 10593 10599 10595 10597 10609 10614 10608 10604 10605 10611 10620 10625 10624 10623 10622 10626 10634 10639 10642 10643 10643 10645 10647 10647 10646 10645 10644 10645 10646 10647 10649 10652 10656 10659 10661 10663 10665 10665 10665 10666 10666 10667 10667 10667 10666 10664 10664 10663 10662 10663 10662 10662 10661 10660 10659 10658 10656 10655 10653 10650 10648 10646 10644 10642 10640
10477 10484 10489 10490 10489 10496 10505 10510 10513 10517 10519 10524 10537 10551 10559 10563 10567 10570 10569 10568 10572 10581 10583 10581 10589 10603 10601 10590 10587 10594 10602 10610 10614 10615 10616 10615 10616 10619 10623 10628 10630 10631 10633 10635 10636 10635 10633 10633 10634 10634 10635 10638 10640 10643 10646 10649 10651 10651 10652 10654 10655 10655 10655 10655 10655 10655 10654 10653 10652 10651 10651 10650 10650 10650 10649 10648 10647 10645 10643 10642 10640 10638 10636 10634 10632 10630
10472 10479 10483 10481 10483 10490 10495 10499 10505 10505 10504 10518 10540 10550 10550 10550 10551 10551 10553 10557 10563 10567 10570 10575 10584 10588 10584 10581 10583 10585 10589 10596 10601 10602 10605 10607 10608 10609 10611 10613 10615 10616 10618 10620 10621 10623 10623 10623 10624 10624 10625 10626 10628 10631 10633 10635 10637 10637 10640 10642 10643 10643 10643 10643 10643 10643 10642 10641 10640 10640 10639 10639 10639 10639 10638 10637 10636 10634 10633 10631 10630 10628 10626 10624 10622 10620
10464 10470 10471 10471 10475 10481 10485 10491 10493 10488 10495 10521 10539 10535 10531 10534 10537 10540 10548 10553 10554 10558 10567 10574 10576 10574 10573 10576 10576 10572 10573 10580 10586 10590 10594 10595 10596 10598 10599 10598 10596 10597 10601 10604 10608 10610 10612 10613 10614 10615 10615 10614 10615 10618 10620 10621 10623 10625 10627 10629 10630 10630 10631 10631 10631 10631 10630 10629 10628 10628 10628 10627 10628 10627 10627 10626 10624 10623 10622 10621 10620 10618 10615 10614 10611 10609
10452 10455 10458 10461 10466 10471 10477 10479 10476 10480 10502 10524 10524 10516 10519 10527 10531 10537 10544 10547 10549 10556 10561 10563 10563 10561 10560 10561 10562 10561 10561 10562 10567 10573 10577 10578 10580 10581 10582 10582 10581 10582 10586 10591 10594 10596 10599 10602 10605 10606 10606 10604 10603 10605 10606 10609 10610 10612 10614 10616 10617 10618 10618 10618 10619 10618 10617 10616 10616 10616 10616 10616 10616 10616 10615 10614 10613 10613 10612 10610 10608 10606 10604 10603 10601 10598
10439 10442 10447 10452 10455 10460 10465 10467 10470 10485 10504 10509 10504 10505 10512 10518 10523 10529 10536 10540 10543 10545 10546 10549 10552 10549 10546 10548 10551 10550 10546 10546 10552 10558 10558 10560 10565 10566 10567 10569 10571 10572 10575 10577 10579 10581 10583 10587 10592 10594 10595 10594 10593 10592 10593 10595 10598 10599 10601 10603 10604 10605 10605 10606 10606 10605 10604 10603 10603 10603 10604 10604 10604 10604 10603 10603 10603 10602 10600 10598 10597 10595 10593 10592 10589 10586
10429 10434 10439 10444 10446 10449 10453 10458 10465 10477 10487 10490 10495 10502 10505 10508 10514 10519 10525 10531 10532 10530 10533 10539 10540 10536 10534 10536 10538 10535 10533 10536 10544 10545 10539 10540 10547 10552 10556 10559 10559 10560 10562 10562 10564 10566 10567 10571 10576 10579 10581 10581 10581 10580 10581 10583 10585 10586 10588 10589 10591 10592 10593 10593 10592 10591 10590 10590 10591 10592 10593 10593 10593 10592 10592 10592 10591 10589 10588 10586 10585 10583 10581 10579 10577 10573
10420 10424 10429 10433 10436 10437 10440 10446 10453 10465 10480 10492 10498 10501 10500 10501 10504 10506 10513 10521 10520 10517 10521 10525 10525 10524 10524 10524 10523 10521 10521 10528 10535 10528 10519 10523 10532 10538 10543 10546 10546 10547 10548 10548 10550 10552 10553 10556 10561 10564 10567 10567 10567 10568 10570 10572 10573 10573 10574 10575 10577 10578 10580 10580 10578 10577 10577 10578 10580 10581 10582 10581 10581 10581 10580 10579 10578 10576 10575 10574 10572 10570 10568 10566 10564 10560
10407 10412 10416 10418 10421 10425 10432 10441 10451 10467 10485 10494 10493 10492 10492 10492 10492 10493 10502 10514 10512 10504 10507 10513 10513 10512 10510 10509 10509 10509 10512 10521 10523 10512 10506 10516 10522 10522 10526 10531 10534 10536 10537 10537 10537 10538 10539 10543 10547 10549 10552 10553 10553 10556 10558 10560 10561 10562 10562 10562 10563 10565 10566 10564 10563 10563 10565 10567 10568 10568 10569 10569 10569 10568 10567 10566 10565 10564 10562 10561 10559 10557 10555 10553 10551 10548
10403 10408 10410 10413 10419 10426 10435 10444 10454 10469 10483 10485 10483 10485 10485 10483 10482 10484 10495 10507 10502 10492 10494 10498 10497 10498 10498 10498 10499 10501 10506 10512 10510 10501 10501 10509 10511 10509 10512 10515 10518 10524 10526 10526 10526 10526 10527 10530 10532 10535 10537 10538 10540 10543 10544 10546 10548 10549 10549 10549 10550 10551 10550 10549 10550 10552 10553 10554 10554 10555 10556 10556 10555 10555 10554 10553 10552 10550 10549 10547 10545 10544 10543 10541 10539 10536
10403 10407 10410 10417 10424 10430 10437 10446 10455 10467 10477 10478 10476 10478 10477 10473 10474 10481 10489 10491 10484 10479 10480 10480 10481 10487 10491 10491 10494 10498 10500 10502 10501 10497 10496 10498 10498 10500 10502 10502 10505 10509 10512 10513 10515 10515 10515 10517 10519 10520 10522 10524 10527 10529 10531 10533 10534 10535 10536 10537 10537 10537 10537 10538 10539 10539 10540 10541 10542 10543 10543 10543 10542 10541 10540 10539 10539 10537 10536 10534 10533 10532 10531 10529 10526 10524
10398 10403 10409 10417 10423 10428 10437 10447 10453 10460 10469 10470 10467 10468 10470 10469 10472 10476 10474 10464 10459 10462 10466 10468 10473 10481 10485 10489 10493 10495 10493 10493 10493 10492 10490 10488 10488 10489 10490 10492 10493 10494 10497 10500 10502 10503 10504 10506 10507 10508 10510 10511 10513 10516 10518 10520 10521 10522 10523 10524 10524 10525 10526 10526 10527 10527 10527 10528 10529 10529 10529 10529 10529 10528 10527 10527 10526 10525 10523 10522 10521 10520 10518 10516 10514 10511
10396 10401 10406 10413 10420 10427 10433 10440 10447 10457 10464 10460 10457 10462 10467 10465 10463 10459 10450 10442 10443 10450 10457 10463 10471 10477 10481 10485 10487 10485 10484 10484 10483 10483 10483 10481 10477 10476 10478 10481 10483 10484 10486 10489 10491 10493 10495 10496 10496 10498 10498 10499 10500 10502 10504 10506 10508 10509 10510 10511 10511 10512 10513 10513 10514 10514 10514 10515 10515 10515 10515 10516 10515 10515 10515 10514 10513 10512 10511 10510 10509 10508 10506 10504 10501 10499
10383 10389 10398 10408 10416 10422 10429 10437 10446 10456 10457 10448 10446 10452 10454 10448 10445 10443 10438 10435 10438 10444 10451 10458 10464 10469 10473 10476 10475 10473 10474 10474 10473 10473 10472 10471 10469 10467 10467 10470 10474 10476 10478 10478 10480 10482 10483 10484 10485 10486 10487 10488 10489 10490 10492 10494 10495 10496 10497 10498 10499 10499 10500 10500 10501 10502 10502 10502 10502 10502 10502 10503 10503 10503 10502 10501 10501 10500 10499 10498 10496 10495 10493 10491 10489 10486
10382 10391 10398 10406 10412 10418 10426 10433 10437 10441 10441 10435 10434 10438 10438 10436 10436 10436 10433 10430 10431 10437 10445 10450 10455 10459 10462 10463 10464 10465 10464 10463 10463 10462 10461 10461 10462 10461 10460 10462 10464 10466 10468 10468 10469 10470 10471 10472 10473 10474 10475 10477 10478 10479 10480 10481 10483 10484 10485 10485 10486 10487 10488 10488 10489 10490 10490 10490 10490 10490 10490 10490 10490 10490 10489 10488 10488 10487 10486 10485 10483 10482 10480 10478 10475 10473
10386 10389 10391 10398 10405 10409 10415 10422 10424 10426 10429 10428 10427 10428 10429 10429 10429 10427 10426 10424 10425 10431 10438 10443 10446 10449 10449 10452 10454 10454 10453 10452 10452 10452 10453 10455 10455 10455 10455 10455 10454 10455 10457 10458 10458 10459 10460 10461 10462 10462 10464 10465 10465 10467 10468 10469 10470 10471 10472 10473 10474 10475 10476 10476 10477 10477 10477 10478 10478 10478 10478 10478 10477 10477 10476 10476 10475 10474 10473 10472 10470 10469 10467 10465 10462 10459
10376 10378 10381 10388 10393 10397 10407 10416 10418 10419 10421 10421 10421 10421 10420 10420 10421 10422 10421 10418 10418 10423 10429 10434 10437 10439 10441 10444 10444 10444 10444 10444 10443 10443 10445 10447 10447 10448 10447 10445 10445 10445 10446 10446 10447 10449 10449 10450 10451 10451 10452 10452 10454 10455 10456 10457 10458 10459 10460 10461 10462 10463 10463 10464 10464 10465 10465 10465 10465 10465 10466 10466 10465 10465 10464 10463 10462 10461 10460 10458 10457 10456 10454 10451 10448 10446
10369 10370 10372 10379 10385 10394 10406 10410 10406 10406 10410 10412 10413 10414 10415 10416 10416 10414 10410 10408 10410 10416 10421 10424 10427 10431 10435 10436 10436 10436 10436 10435 10434 10434 10434 10435 10436 10437 10436 10436 10436 10435 10436 10436 10437 10438 10439 10440 10441 10441 10442 10443 10443 10444 10445 10446 10447 10448 10449 10450 10450 10451 10452 10452 10452 10452 10452 10453 10453 10453 10454 10454 10453 10453 10452 10451 10450 10449 10448 10446 10444 10443 10440 10437 10435 10433
10354 10356 10363 10372 10379 10386 10394 10395 10393 10397 10404 10408 10409 10411 10411 10408 10403 10399 10397 10399 10403 10409 10413 10416 10420 10425 10428 10428 10427 10425 10423 10423 10423 10423 10423 10423 10424 10425 10426 10427 10427 10427 10428 10428 10428 10428 10429 10430 10431 10432 10433 10434 10434 10435 10435 10435 10436 10437 10437 10438 10438 10439 10440 10440 10440 10441 10441 10441 10442 10442 10442 10442 10441 10441 10440 10439 10438 10437 10435 10433 10432 10429 10427 10424 10422 10420
10340 10348 10357 10363 10368 10376 10386 10390 10391 10394 10399 10400 10399 10398 10395 10390 10386 10387 10391 10394 10397 10401 10406 10409 10413 10417 10419 10419 10417 10414 10412 10412 10412 10412 10412 10413 10414 10415 10417 10419 10419 10419 10419 10419 10419 10420 10420 10420 10421 10422 10423 10424 10425 10425 10425 10425 10426 10426 10426 10426 10427 10427 10427 10428 10428 10429 10429 10430 10430 10430 10430 10430 10429 10428 10428 10426 10425 10424 10422 10420 10418 10416 10414 10411 10409 10407
10342 10350 10353 10357 10366 10376 10382 10382 10380 10381 10382 10382 10380 10378 10378 10378 10379 10383 10387 10389 10391 10394 10398 10401 10404 10408 10410 10409 10407 10406 10404 10402 10401 10401 10403 10404 10405 10407 10408 10409 10410 10410 10410 10410 10410 10411 10411 10411 10412 10413 10414 10415 10415 10415 10415 10415 10415 10415 10415 10415 10415 10415 10416 10416 10416 10416 10417 10417 10417 10418 10418 10417 10416 10415 10414 10413 10411 10410 10408 10406 10404 10403 10401 10398 10396 10394